Total_Precipitation_Accumulation
0.09 0.13 0.26 0.25 0.22 0.21 0.16 0.13 0.14 0.19 0.17 0.16 0.19 0.20 0.19 0.19 0.19 0.16 0.15 0.14 0.13 0.12 0.14 0.14 0.13 0.17 0.20 0.25 0.30 0.37 0.53 0.68 0.83 0.96 1.10 1.36 1.52 1.62 1.59 1.60 1.67 1.58 1.38 1.44
0.11 0.14 0.12 0.10 0.10 0.10 0.11 0.11 0.12 0.14 0.12 0.12 0.12 0.12 0.12 0.12 0.14 0.13 0.13 0.12 0.10 0.08 0.07 0.06 0.07 0.09 0.12 0.15 0.22 0.29 0.44 0.66 0.89 1.11 1.30 1.50 1.81 1.95 1.95 2.01 1.96 1.90 1.79 1.78
0.09 0.09 0.06 0.06 0.07 0.09 0.09 0.10 0.10 0.11 0.10 0.08 0.08 0.09 0.09 0.10 0.10 0.10 0.10 0.10 0.09 0.07 0.07 0.06 0.05 0.06 0.07 0.09 0.14 0.21 0.34 0.56 0.86 1.16 1.41 1.60 1.83 2.09 2.19 2.09 2.04 2.07 2.15 2.17
0.04 0.03 0.03 0.04 0.05 0.07 0.10 0.09 0.08 0.08 0.10 0.10 0.10 0.15 0.15 0.14 0.14 0.13 0.12 0.13 0.12 0.11 0.10 0.08 0.06 0.06 0.07 0.10 0.13 0.17 0.32 0.47 0.71 0.98 1.29 1.53 1.79 2.09 2.15 2.13 2.11 2.14 2.24 2.32
0.02 0.02 0.02 0.02 0.02 0.03 0.05 0.04 0.05 0.06 0.09 0.09 0.09 0.16 0.17 0.16 0.19 0.20 0.20 0.21 0.18 0.15 0.15 0.12 0.10 0.10 0.12 0.15 0.18 0.24 0.38 0.53 0.73 0.97 1.29 1.58 1.77 1.92 2.09 2.11 2.04 1.96 1.99 2.00
0.02 0.01 0.01 0.00 0.00 0.01 0.02 0.02 0.04 0.04 0.06 0.06 0.05 0.14 0.23 0.23 0.22 0.20 0.22 0.22 0.17 0.14 0.14 0.17 0.21 0.22 0.22 0.24 0.30 0.37 0.50 0.71 0.86 0.96 1.10 1.24 1.46 1.74 1.86 1.95 1.98 1.97 1.90 1.77
0.00 0.00 0.00 0.00 0.00 0.00 0.01 0.05 0.09 0.10 0.13 0.12 0.10 0.20 0.31 0.27 0.22 0.21 0.22 0.20 0.19 0.21 0.25 0.33 0.43 0.40 0.37 0.40 0.49 0.56 0.63 0.73 0.78 0.78 0.86 0.97 1.13 1.33 1.47 1.56 1.74 1.78 1.77 1.69
0.00 0.00 0.00 0.00 0.00 0.01 0.01 0.05 0.12 0.16 0.18 0.21 0.26 0.40 0.44 0.35 0.28 0.24 0.21 0.19 0.21 0.29 0.39 0.54 0.65 0.70 0.64 0.62 0.64 0.62 0.62 0.60 0.61 0.66 0.72 0.78 0.84 0.97 1.07 1.16 1.32 1.43 1.41 1.35
0.00 0.00 0.00 0.00 0.00 0.01 0.02 0.03 0.06 0.14 0.15 0.21 0.34 0.51 0.51 0.35 0.29 0.27 0.26 0.23 0.29 0.42 0.57 0.73 0.86 0.93 0.87 0.78 0.72 0.68 0.68 0.65 0.58 0.60 0.68 0.73 0.77 0.78 0.81 0.85 0.85 0.93 1.01 1.01
0.02 0.02 0.01 0.00 0.01 0.01 0.02 0.04 0.10 0.22 0.33 0.36 0.39 0.52 0.60 0.49 0.38 0.36 0.38 0.44 0.55 0.73 0.80 0.91 0.98 0.97 0.96 1.00 0.93 0.77 0.71 0.71 0.66 0.73 0.74 0.71 0.69 0.67 0.65 0.67 0.72 0.73 0.82 0.92
0.08 0.09 0.03 0.02 0.03 0.06 0.09 0.13 0.20 0.32 0.42 0.56 0.68 0.82 0.69 0.57 0.56 0.54 0.56 0.72 0.82 0.92 1.00 1.02 1.08 1.01 0.89 0.89 0.87 0.84 0.79 0.73 0.75 0.79 0.80 0.70 0.66 0.66 0.65 0.61 0.62 0.68 0.77 0.89
0.16 0.22 0.13 0.04 0.08 0.13 0.23 0.35 0.45 0.61 0.65 0.63 0.86 1.06 0.78 0.64 0.65 0.66 0.65 0.63 0.65 0.83 0.94 0.98 1.04 0.97 0.81 0.77 0.68 0.71 0.79 0.79 0.85 0.86 0.79 0.71 0.70 0.73 0.77 0.75 0.66 0.65 0.70 0.73
0.25 0.39 0.30 0.15 0.23 0.32 0.39 0.48 0.60 0.73 0.83 0.83 0.92 1.05 0.83 0.62 0.58 0.63 0.72 0.70 0.67 0.71 0.73 0.72 0.73 0.80 0.76 0.72 0.64 0.70 0.76 0.81 0.85 0.86 0.84 0.75 0.65 0.68 0.74 0.74 0.65 0.62 0.64 0.68
0.23 0.38 0.43 0.34 0.36 0.43 0.42 0.39 0.45 0.66 0.89 0.92 0.98 0.95 0.74 0.62 0.56 0.59 0.65 0.71 0.66 0.56 0.52 0.50 0.46 0.52 0.55 0.57 0.62 0.66 0.77 0.89 0.93 0.91 0.84 0.81 0.75 0.76 0.72 0.62 0.58 0.59 0.58 0.55
0.16 0.17 0.20 0.18 0.19 0.25 0.32 0.34 0.43 0.56 0.74 0.97 0.87 0.67 0.55 0.52 0.48 0.50 0.55 0.49 0.43 0.39 0.37 0.35 0.32 0.32 0.34 0.37 0.45 0.52 0.65 0.81 0.93 0.97 0.92 0.85 0.79 0.69 0.61 0.56 0.48 0.49 0.44 0.42
0.23 0.18 0.08 0.07 0.10 0.16 0.28 0.41 0.54 0.60 0.67 0.69 0.60 0.56 0.42 0.36 0.32 0.32 0.37 0.37 0.36 0.31 0.27 0.24 0.24 0.21 0.23 0.29 0.36 0.36 0.48 0.63 0.74 0.79 0.80 0.81 0.77 0.61 0.53 0.46 0.39 0.37 0.37 0.38
0.10 0.12 0.09 0.07 0.09 0.17 0.40 0.53 0.60 0.59 0.54 0.45 0.42 0.37 0.26 0.24 0.17 0.16 0.21 0.25 0.30 0.28 0.23 0.21 0.20 0.21 0.23 0.30 0.31 0.32 0.41 0.52 0.57 0.61 0.64 0.66 0.61 0.48 0.43 0.34 0.30 0.32 0.33 0.36
0.10 0.13 0.17 0.12 0.13 0.34 0.61 0.51 0.45 0.48 0.37 0.22 0.20 0.20 0.19 0.15 0.11 0.08 0.08 0.11 0.13 0.16 0.16 0.21 0.18 0.17 0.19 0.24 0.29 0.37 0.40 0.41 0.41 0.45 0.49 0.47 0.47 0.42 0.35 0.27 0.27 0.28 0.31 0.35
0.17 0.22 0.25 0.22 0.23 0.42 0.57 0.38 0.34 0.39 0.33 0.16 0.11 0.11 0.09 0.07 0.05 0.03 0.02 0.05 0.06 0.06 0.07 0.10 0.09 0.09 0.10 0.10 0.11 0.14 0.17 0.19 0.23 0.30 0.36 0.40 0.40 0.37 0.31 0.27 0.33 0.39 0.37 0.37
0.30 0.32 0.32 0.31 0.37 0.50 0.39 0.15 0.15 0.27 0.38 0.13 0.06 0.05 0.04 0.03 0.04 0.02 0.02 0.04 0.03 0.02 0.02 0.03 0.03 0.03 0.03 0.02 0.02 0.03 0.05 0.09 0.13 0.19 0.24 0.28 0.31 0.34 0.38 0.46 0.54 0.55 0.51 0.43
0.19 0.25 0.31 0.39 0.56 0.57 0.33 0.13 0.15 0.28 0.40 0.18 0.05 0.02 0.01 0.01 0.01 0.00 0.02 0.03 0.02 0.01 0.00 0.00 0.01 0.01 0.00 0.00 0.00 0.00 0.01 0.02 0.02 0.04 0.10 0.18 0.29 0.35 0.44 0.56 0.59 0.57 0.52 0.43
0.18 0.28 0.38 0.50 0.66 0.74 0.38 0.19 0.21 0.19 0.13 0.10 0.04 0.01 0.01 0.00 0.00 0.00 0.01 0.01 0.01 0.01 0.00 0.00 0.00 0.00 0.00 0.00 0.00 0.00 0.00 0.00 0.01 0.03 0.07 0.13 0.20 0.29 0.42 0.51 0.50 0.50 0.48 0.45
0.18 0.33 0.45 0.50 0.56 0.47 0.28 0.16 0.11 0.08 0.08 0.03 0.01 0.01 0.00 0.00 0.00 0.00 0.01 0.01 0.01 0.01 0.00 0.00 0.00 0.00 0.00 0.00 0.00 0.00 0.00 0.00 0.00 0.01 0.02 0.06 0.11 0.22 0.36 0.39 0.39 0.42 0.45 0.44
0.08 0.11 0.18 0.20 0.15 0.14 0.11 0.08 0.04 0.03 0.04 0.01 0.00 0.00 0.00 0.00 0.00 0.00 0.00 0.01 0.00 0.00 0.00 0.00 0.00 0.00 0.00 0.00 0.00 0.00 0.00 0.00 0.00 0.00 0.00 0.01 0.02 0.05 0.10 0.15 0.20 0.26 0.31 0.33
0.09 0.10 0.17 0.20 0.10 0.05 0.04 0.04 0.02 0.02 0.02 0.01 0.00 0.00 0.00 0.00 0.00 0.00 0.00 0.00 0.00 0.00 0.00 0.00 0.00 0.00 0.00 0.00 0.00 0.00 0.00 0.00 0.00 0.00 0.00 0.01 0.02 0.03 0.04 0.06 0.09 0.12 0.15 0.19
0.05 0.12 0.16 0.20 0.12 0.06 0.04 0.03 0.02 0.02 0.01 0.01 0.00 0.00 0.00 0.00 0.00 0.00 0.00 0.00 0.00 0.00 0.00 0.00 0.00 0.00 0.00 0.00 0.00 0.00 0.00 0.00 0.00 0.00 0.00 0.00 0.01 0.01 0.01 0.02 0.03 0.04 0.06 0.09